Simultaneous Nadir Overpasses (SNOs) Predictions

Prediction of SNOs between LANDSAT-8 and METOP-A Satellite Orbit:

Table of predicted SNOs for the next 14.0 days since TLE Epoch: 10/3/2020
Index Date (LANDSAT-8) Time (LANDSAT-8) Lat,Lon (LANDSAT-8) SZA (LANDSAT-8 ) Date (METOP-A) Time (METOP-A) Lat,Lon (METOP-A) SZA (METOP-A ) Distance(km) Time Diff (sec)
1 10/04/2020 01:14:28 81.45,-152.65 88.78 10/04/2020 01:13:16 81.46,-152.67 88.75 0.69 72
2 10/04/2020 02:03:55 -81.45, 14.91 91.22 10/04/2020 02:03:56 -81.45, 14.99 91.21 1.42 1
3 10/04/2020 02:53:16 81.54,-175.35 89.09 10/04/2020 02:54:23 81.30,-172.30 89.34 57.07 67
4 10/06/2020 20:48:44 81.44, -86.34 89.87 10/06/2020 20:47:39 81.45, -86.18 89.86 2.70 65
5 10/06/2020 21:38:11 -81.44, 81.25 90.13 10/06/2020 21:38:20 -81.45, 81.10 90.14 2.68 9
6 10/09/2020 16:22:59 81.46, -19.66 90.99 10/09/2020 16:22:02 81.45, -19.71 90.95 1.10 57
7 10/09/2020 17:12:26 -81.45, 147.95 89.01 10/09/2020 17:12:42 -81.44, 147.99 89.01 1.47 16
8 10/12/2020 11:57:14 81.45, 46.61 92.04 10/12/2020 11:56:24 81.45, 46.75 92.03 2.28 50
9 10/12/2020 12:46:41 -81.45,-145.76 87.96 10/12/2020 12:47:05 -81.45,-145.94 87.97 2.90 24
10 10/15/2020 07:31:29 81.46, 113.24 93.12 10/15/2020 07:30:47 81.45, 113.19 93.09 1.52 42
